Temp
-11 -11 -11 -11 -10 -10 -10 -10 -10 -10 -10 -10 -10 -10 -10 -10 -10 -10 -10 -10 -10 -10 -9 -9 -9 -9 -9 -9 -9 -9 -9 -9 -9 -9 -9 -9 -9 -9 -9 -9 -9 -9 -9 -9 -9
-11 -11 -11 -11 -11 -11 -11 -10 -10 -10 -10 -10 -10 -10 -10 -10 -10 -10 -10 -10 -10 -10 -10 -9 -10 -10 -9 -9 -9 -9 -9 -9 -9 -9 -9 -9 -9 -9 -9 -9 -9 -9 -9 -9 -9
-11 -12 -11 -11 -12 -11 -11 -11 -11 -11 -11 -10 -10 -10 -10 -10 -10 -10 -10 -10 -10 -10 -10 -10 -10 -10 -10 -10 -10 -10 -10 -9 -9 -9 -9 -9 -9 -9 -9 -9 -9 -9 -10 -10 -9
-12 -12 -12 -12 -12 -11 -11 -11 -11 -11 -11 -11 -11 -11 -11 -11 -10 -10 -10 -11 -10 -10 -10 -10 -10 -10 -11 -10 -10 -10 -10 -10 -10 -9 -9 -9 -10 -9 -9 -10 -10 -10 -10 -10 -10
-13 -13 -13 -12 -12 -12 -12 -11 -12 -12 -11 -11 -11 -11 -11 -11 -11 -11 -11 -11 -11 -11 -11 -10 -10 -10 -11 -10 -10 -10 -10 -10 -10 -10 -10 -10 -9 -9 -10 -10 -10 -9 -10 -10 -10
-15 -14 -13 -13 -13 -12 -12 -12 -12 -12 -12 -12 -11 -11 -11 -11 -12 -11 -11 -11 -11 -11 -11 -11 -11 -11 -10 -10 -10 -10 -10 -10 -10 -11 -10 -10 -9 -9 -11 -11 -10 -9 -9 -10 -11
-15 -15 -14 -14 -14 -13 -13 -13 -14 -13 -12 -12 -12 -12 -11 -12 -12 -11 -11 -11 -11 -11 -11 -11 -11 -11 -10 -11 -10 -10 -10 -10 -10 -11 -10 -10 -9 -10 -11 -11 -10 -10 -10 -10 -11
-16 -16 -15 -16 -14 -14 -14 -15 -14 -15 -14 -13 -13 -12 -11 -12 -12 -11 -12 -12 -12 -12 -12 -12 -11 -11 -11 -11 -10 -11 -10 -10 -11 -11 -11 -10 -9 -11 -11 -10 -10 -11 -11 -11 -12
-16 -16 -16 -16 -16 -16 -15 -14 -15 -16 -15 -14 -13 -13 -13 -12 -12 -12 -12 -13 -13 -12 -12 -12 -12 -11 -11 -11 -11 -10 -10 -10 -11 -11 -11 -11 -9 -10 -11 -10 -11 -11 -12 -12 -13
-17 -17 -16 -16 -16 -15 -16 -16 -16 -16 -15 -15 -14 -14 -12 -13 -13 -13 -13 -13 -13 -13 -13 -12 -12 -12 -11 -11 -10 -11 -11 -11 -11 -11 -11 -11 -10 -10 -10 -10 -11 -11 -12 -13 -13
-18 -18 -18 -17 -17 -16 -16 -16 -16 -16 -15 -15 -15 -14 -14 -14 -14 -14 -13 -13 -13 -13 -13 -13 -12 -12 -12 -12 -12 -11 -11 -11 -11 -12 -11 -11 -10 -10 -10 -10 -11 -12 -13 -13 -13
-18 -18 -18 -18 -18 -18 -17 -16 -16 -16 -16 -16 -15 -15 -14 -14 -14 -14 -14 -14 -14 -13 -14 -13 -12 -12 -12 -12 -12 -12 -12 -12 -12 -12 -12 -12 -10 -10 -10 -11 -11 -12 -13 -13 -14
-19 -19 -19 -19 -19 -18 -17 -17 -17 -16 -17 -17 -16 -15 -15 -14 -14 -14 -14 -14 -14 -14 -14 -14 -13 -13 -13 -12 -12 -12 -12 -13 -13 -13 -13 -12 -10 -10 -11 -11 -12 -13 -14 -14 -14
-20 -20 -21 -21 -19 -18 -18 -18 -18 -18 -18 -17 -16 -15 -15 -14 -15 -15 -15 -14 -14 -14 -14 -14 -13 -13 -13 -12 -13 -12 -13 -14 -14 -14 -12 -14 -11 -10 -11 -12 -13 -14 -15 -15 -15
-21 -21 -21 -21 -19 -19 -20 -20 -20 -20 -20 -18 -17 -16 -16 -15 -15 -15 -16 -16 -15 -15 -15 -14 -14 -14 -13 -13 -14 -14 -15 -15 -15 -15 -13 -13 -14 -10 -11 -12 -14 -16 -15 -15 -16
-23 -23 -23 -21 -20 -20 -21 -22 -22 -22 -21 -18 -17 -15 -16 -15 -15 -15 -16 -16 -15 -15 -15 -14 -14 -14 -14 -14 -14 -14 -14 -15 -16 -16 -14 -14 -15 -12 -12 -14 -15 -16 -16 -16 -16
-22 -22 -23 -23 -21 -22 -22 -23 -23 -23 -21 -17 -15 -16 -16 -17 -17 -16 -17 -16 -16 -16 -15 -15 -14 -14 -14 -14 -14 -15 -16 -17 -16 -16 -15 -15 -16 -14 -14 -16 -16 -17 -17 -17 -17
-22 -23 -22 -22 -22 -22 -22 -23 -24 -22 -20 -18 -16 -17 -17 -18 -17 -17 -17 -16 -16 -16 -16 -16 -15 -15 -15 -15 -16 -17 -18 -18 -18 -17 -17 -17 -16 -14 -17 -17 -17 -17 -18 -17 -17
-22 -23 -23 -22 -22 -22 -23 -23 -23 -21 -20 -20 -19 -19 -19 -18 -18 -18 -17 -17 -17 -17 -17 -16 -16 -16 -16 -16 -17 -17 -17 -18 -20 -19 -20 -18 -17 -16 -18 -18 -17 -18 -18 -18 -17
-23 -23 -23 -22 -22 -23 -24 -23 -22 -21 -21 -21 -20 -19 -19 -18 -19 -18 -18 -16 -17 -17 -17 -17 -17 -17 -17 -17 -18 -18 -18 -19 -20 -20 -20 -19 -19 -18 -19 -19 -18 -18 -19 -18 -18
-24 -24 -23 -23 -23 -24 -24 -23 -22 -22 -21 -21 -21 -20 -19 -19 -19 -19 -18 -18 -18 -18 -18 -19 -18 -18 -18 -17 -18 -19 -19 -20 -20 -20 -20 -20 -20 -19 -20 -19 -18 -18 -18 -18 -19
-28 -27 -25 -24 -25 -26 -25 -23 -22 -22 -22 -22 -21 -21 -20 -20 -19 -20 -19 -18 -18 -19 -19 -19 -20 -19 -18 -18 -19 -20 -20 -21 -21 -21 -21 -20 -19 -20 -19 -19 -19 -19 -19 -18 -18
-29 -29 -28 -28 -28 -28 -27 -26 -24 -23 -23 -22 -21 -21 -20 -20 -20 -20 -19 -19 -19 -19 -19 -20 -21 -21 -21 -20 -20 -20 -20 -21 -21 -21 -21 -21 -19 -20 -20 -19 -19 -19 -20 -19 -19
-29 -29 -29 -29 -29 -28 -28 -28 -27 -24 -24 -24 -23 -23 -22 -21 -21 -20 -20 -20 -20 -20 -20 -22 -22 -22 -21 -21 -21 -20 -21 -21 -21 -21 -20 -20 -20 -20 -20 -20 -20 -20 -20 -20 -20
-30 -30 -29 -29 -29 -29 -29 -29 -29 -28 -27 -27 -26 -24 -23 -22 -21 -20 -21 -21 -21 -21 -22 -22 -22 -22 -21 -22 -22 -21 -21 -21 -21 -21 -21 -20 -20 -21 -21 -21 -20 -21 -21 -20 -20
-30 -30 -30 -29 -29 -29 -29 -28 -28 -29 -28 -28 -27 -26 -27 -25 -23 -23 -23 -23 -22 -23 -23 -22 -22 -22 -22 -22 -22 -22 -22 -21 -21 -21 -21 -21 -20 -21 -20 -21 -21 -21 -20 -20 -20
-30 -30 -30 -30 -30 -30 -29 -28 -28 -28 -29 -28 -27 -27 -27 -26 -26 -25 -25 -25 -24 -24 -24 -23 -21 -21 -22 -22 -22 -22 -21 -21 -21 -21 -21 -21 -20 -21 -21 -21 -21 -20 -20 -21 -20
Height
5748 5754 5758 5764 5768 5773 5777 5782 5786 5790 5794 5799 5804 5808 5812 5817 5821 5825 5829 5831 5832 5835 5838 5840 5843 5845 5848 5851 5852 5854 5857 5857 5857 5858 5859 5861 5863 5862 5861 5862 5862 5861 5861 5860 5858
5738 5743 5749 5754 5760 5764 5768 5773 5778 5783 5787 5791 5796 5800 5805 5810 5815 5819 5821 5824 5825 5829 5833 5836 5839 5842 5843 5846 5848 5850 5853 5853 5853 5854 5855 5858 5858 5858 5858 5857 5858 5857 5857 5857 5856
5727 5732 5739 5744 5749 5755 5759 5764 5769 5774 5778 5783 5787 5793 5797 5803 5808 5812 5814 5818 5819 5823 5827 5830 5833 5836 5838 5840 5843 5846 5849 5848 5848 5848 5850 5852 5854 5854 5854 5853 5852 5853 5854 5853 5852
5715 5720 5725 5733 5738 5744 5749 5754 5759 5765 5770 5774 5778 5784 5789 5794 5799 5805 5808 5812 5812 5815 5820 5823 5826 5828 5832 5834 5835 5839 5841 5842 5843 5843 5846 5847 5848 5847 5849 5848 5846 5848 5849 5849 5847
5703 5710 5716 5721 5727 5732 5738 5744 5749 5755 5759 5764 5770 5775 5781 5787 5792 5796 5800 5803 5805 5807 5811 5815 5819 5821 5825 5828 5829 5832 5834 5835 5836 5837 5840 5841 5842 5840 5845 5842 5840 5841 5843 5842 5842
5690 5698 5704 5711 5717 5722 5727 5733 5739 5743 5749 5754 5760 5766 5772 5779 5782 5784 5792 5795 5798 5799 5803 5807 5810 5813 5817 5821 5822 5824 5827 5827 5828 5832 5834 5835 5833 5834 5840 5835 5837 5836 5835 5835 5836
5675 5683 5690 5696 5704 5710 5714 5721 5726 5733 5738 5743 5748 5755 5763 5770 5772 5776 5782 5786 5789 5791 5794 5798 5802 5806 5811 5813 5814 5817 5817 5818 5822 5826 5826 5825 5826 5830 5830 5828 5828 5829 5828 5828 5828
5660 5668 5676 5684 5689 5697 5704 5709 5714 5719 5725 5732 5738 5745 5752 5756 5763 5768 5772 5777 5781 5784 5787 5789 5794 5798 5801 5804 5805 5808 5808 5811 5816 5816 5818 5817 5821 5824 5821 5820 5821 5820 5820 5821 5821
5646 5653 5661 5669 5676 5682 5687 5695 5702 5707 5713 5719 5726 5734 5740 5747 5752 5756 5761 5764 5769 5775 5779 5781 5785 5788 5791 5793 5795 5796 5802 5805 5804 5805 5805 5808 5813 5815 5814 5811 5810 5811 5811 5811 5812
5629 5638 5645 5654 5661 5668 5673 5681 5687 5695 5698 5705 5711 5720 5727 5735 5741 5746 5752 5756 5760 5764 5768 5772 5774 5779 5782 5784 5788 5790 5791 5792 5793 5795 5794 5799 5806 5805 5803 5802 5802 5802 5802 5803 5804
5615 5623 5631 5639 5646 5654 5660 5668 5678 5682 5684 5695 5704 5714 5718 5728 5734 5737 5741 5746 5750 5752 5757 5761 5766 5771 5773 5774 5778 5778 5780 5781 5781 5783 5785 5788 5794 5794 5795 5792 5792 5792 5792 5793 5795
5601 5609 5617 5625 5632 5637 5646 5656 5663 5667 5671 5679 5687 5697 5706 5712 5720 5726 5729 5734 5738 5743 5745 5749 5756 5762 5763 5765 5767 5768 5769 5770 5769 5771 5773 5773 5783 5782 5784 5784 5780 5781 5782 5784 5784
5586 5594 5603 5610 5617 5626 5636 5641 5645 5650 5655 5662 5673 5683 5694 5699 5706 5713 5720 5722 5727 5731 5734 5738 5747 5751 5752 5754 5757 5759 5758 5758 5757 5757 5759 5759 5770 5772 5774 5774 5774 5771 5771 5773 5774
5572 5580 5588 5593 5603 5616 5624 5628 5632 5636 5637 5648 5659 5671 5679 5687 5694 5701 5705 5709 5715 5721 5721 5726 5735 5740 5743 5746 5746 5748 5748 5745 5744 5742 5749 5750 5748 5763 5765 5765 5764 5761 5759 5757 5757
5557 5568 5572 5578 5593 5605 5617 5617 5619 5623 5620 5639 5649 5658 5668 5674 5685 5690 5693 5695 5704 5707 5710 5723 5726 5726 5731 5735 5735 5737 5734 5732 5731 5731 5735 5742 5730 5757 5753 5753 5752 5749 5745 5745 5746
5546 5553 5559 5564 5580 5592 5595 5600 5603 5605 5604 5622 5637 5648 5655 5664 5667 5673 5679 5684 5692 5695 5701 5710 5712 5715 5722 5723 5724 5722 5722 5720 5720 5721 5724 5731 5727 5740 5744 5740 5736 5735 5734 5733 5735
5533 5541 5547 5555 5566 5577 5580 5581 5584 5581 5600 5615 5626 5636 5643 5651 5655 5662 5668 5674 5682 5686 5696 5698 5703 5707 5711 5710 5711 5713 5713 5710 5710 5709 5712 5719 5717 5720 5730 5729 5723 5723 5722 5723 5725
5518 5526 5532 5544 5554 5562 5565 5564 5562 5574 5595 5607 5614 5620 5631 5641 5649 5651 5652 5662 5668 5673 5683 5683 5689 5695 5701 5702 5703 5703 5703 5701 5697 5702 5703 5706 5701 5711 5718 5720 5715 5712 5712 5712 5714
5502 5509 5516 5530 5541 5545 5546 5541 5550 5568 5587 5596 5600 5606 5615 5626 5636 5636 5641 5650 5659 5665 5670 5672 5675 5684 5688 5691 5692 5693 5690 5699 5690 5690 5688 5691 5694 5702 5705 5708 5707 5703 5699 5702 5708
5483 5490 5501 5516 5525 5528 5525 5529 5542 5558 5573 5579 5587 5598 5604 5614 5619 5624 5628 5643 5650 5654 5659 5661 5661 5668 5672 5677 5677 5680 5686 5683 5681 5681 5680 5680 5684 5690 5692 5696 5696 5694 5693 5693 5695
5463 5469 5487 5500 5508 5505 5506 5517 5532 5549 5558 5568 5573 5584 5594 5598 5607 5611 5615 5633 5639 5644 5647 5646 5648 5656 5660 5664 5668 5671 5673 5674 5675 5674 5671 5674 5678 5683 5680 5683 5685 5687 5687 5686 5685
5446 5453 5469 5479 5484 5487 5494 5505 5522 5534 5542 5548 5560 5570 5581 5588 5591 5597 5603 5618 5626 5631 5631 5637 5637 5639 5647 5652 5656 5657 5660 5662 5660 5664 5668 5667 5670 5667 5673 5674 5676 5678 5679 5678 5675
5435 5445 5455 5463 5467 5475 5485 5493 5506 5517 5526 5534 5544 5555 5569 5574 5577 5584 5592 5606 5610 5615 5619 5623 5621 5625 5632 5636 5639 5642 5648 5653 5656 5657 5658 5657 5664 5660 5662 5667 5669 5670 5672 5672 5669
5428 5435 5443 5449 5461 5469 5476 5485 5492 5504 5513 5521 5531 5540 5551 5559 5566 5573 5581 5589 5595 5602 5608 5610 5610 5613 5620 5625 5630 5636 5642 5646 5647 5645 5651 5650 5654 5653 5652 5656 5657 5658 5660 5662 5662
5417 5425 5434 5440 5450 5461 5471 5481 5487 5494 5501 5510 5516 5525 5537 5544 5551 5558 5569 5576 5583 5589 5596 5599 5599 5604 5611 5615 5620 5623 5629 5634 5633 5639 5636 5645 5643 5644 5644 5645 5646 5649 5650 5652 5653
5411 5420 5430 5441 5451 5457 5465 5473 5479 5487 5494 5501 5508 5522 5528 5530 5539 5550 5559 5566 5570 5577 5583 5589 5592 5598 5600 5606 5609 5611 5617 5621 5623 5627 5628 5632 5635 5637 5636 5635 5638 5639 5639 5639 5640
5406 5419 5427 5435 5443 5449 5459 5471 5476 5481 5488 5496 5507 5515 5516 5528 5539 5547 5550 5555 5561 5565 5573 5580 5586 5587 5591 5598 5600 5597 5608 5612 5617 5619 5623 5621 5630 5626 5626 5627 5626 5628 5628 5629 5631
Wind_Speed
57 58 54 54 52 52 52 50 50 48 46 44 42 40 38 37 35 33 29 29 30 29 28 26 25 24 26 24 23 21 18 18 20 19 19 17 17 19 20 21 22 24 25 27 29
59 59 58 59 57 56 55 54 52 51 50 48 46 44 42 41 39 35 35 34 34 33 33 31 29 28 29 29 27 25 21 23 23 22 20 18 18 20 22 23 23 25 26 28 30
62 60 59 57 62 61 57 57 55 54 53 51 49 48 46 44 42 39 40 37 38 36 36 34 33 31 30 31 29 27 24 26 27 26 22 21 21 21 22 25 27 26 27 28 30
61 62 58 59 60 61 59 58 57 57 56 54 53 51 49 47 47 44 41 39 40 39 37 35 35 34 32 32 32 29 27 29 29 29 27 24 23 25 25 27 30 29 28 29 31
63 63 65 58 56 57 58 57 57 58 58 57 56 54 53 52 49 47 44 43 42 41 40 38 37 37 37 35 35 33 32 33 32 33 30 29 28 30 25 30 32 33 32 32 31
60 64 63 65 60 62 59 55 57 56 58 60 59 58 57 55 52 53 48 46 45 45 45 43 41 40 40 38 38 37 35 36 37 34 33 33 35 34 27 33 32 35 36 35 32
72 65 68 65 72 64 61 63 66 61 61 59 61 61 61 57 56 57 53 52 50 49 49 48 46 43 42 42 41 41 41 41 39 35 36 39 40 34 33 36 37 37 38 39 36
77 76 69 65 69 78 72 68 73 73 68 64 63 63 63 60 60 59 57 54 53 52 52 51 49 47 46 45 45 46 46 44 41 40 40 43 41 36 38 40 40 41 41 39 36
81 79 77 73 69 73 76 73 77 65 74 71 69 64 63 63 62 61 59 58 56 54 52 53 52 51 50 49 50 50 47 44 45 44 45 45 43 40 41 44 44 44 42 39 37
66 66 68 73 77 69 68 65 67 73 74 71 71 70 71 62 60 60 58 57 56 55 54 55 55 53 52 52 52 50 49 48 47 47 49 48 44 44 46 47 48 48 44 42 39
67 66 65 65 66 73 72 76 69 71 75 73 70 68 68 61 55 58 57 55 55 55 55 54 54 52 53 53 53 53 51 51 51 51 50 50 48 48 48 50 50 48 45 43 43
68 67 65 64 64 65 66 72 74 71 69 72 75 73 75 68 66 58 57 56 54 53 54 55 53 52 54 53 52 52 53 53 54 54 54 55 51 52 51 51 53 52 49 43 43
68 67 66 67 65 66 63 61 68 73 68 68 70 70 69 71 67 64 62 59 58 58 57 57 55 53 54 55 54 54 56 57 58 58 57 58 54 54 53 53 52 52 49 45 43
69 68 64 66 70 66 63 62 62 63 65 68 66 69 70 70 62 61 63 63 61 58 59 59 57 57 56 55 58 58 57 58 59 60 59 56 62 55 53 52 49 46 45 45 45
66 68 69 71 70 66 59 60 60 59 65 65 64 65 62 63 62 60 58 60 60 60 61 56 55 57 57 57 56 56 56 58 59 60 62 59 65 53 54 52 46 39 43 44 43
66 64 64 69 70 68 63 61 60 61 70 70 67 65 63 62 63 63 62 62 61 62 62 61 62 61 59 59 57 58 59 59 59 60 63 60 59 56 50 48 46 38 42 43 40
71 70 68 67 66 63 64 66 66 70 71 73 71 67 67 64 63 63 61 59 60 61 60 60 60 60 58 60 60 59 58 58 60 62 62 57 54 56 47 41 42 39 40 40 37
71 71 71 69 68 66 68 70 73 74 71 71 72 69 66 64 63 65 66 63 61 61 60 61 60 58 57 56 56 57 56 57 59 59 59 57 60 53 42 38 41 44 40 38 37
74 73 72 71 69 69 70 73 78 75 70 69 71 70 69 65 62 65 67 65 62 61 62 62 63 60 58 56 54 54 56 49 51 53 54 56 56 49 43 39 37 30 33 33 36
78 78 77 73 72 72 74 76 76 73 70 70 70 70 70 67 66 66 68 64 62 63 62 62 64 62 58 57 56 55 51 50 43 45 48 49 44 37 36 33 40 45 45 44 43
76 76 78 76 73 75 79 81 77 71 70 68 69 68 67 68 66 66 66 60 59 58 59 61 63 61 60 59 56 53 51 51 48 46 46 43 37 36 41 43 44 46 48 44 46
52 59 67 70 70 71 75 78 76 72 72 72 70 69 66 66 67 66 64 58 57 55 58 56 60 63 61 57 54 54 53 52 51 48 44 45 45 46 39 35 38 38 41 39 34
59 60 60 61 67 67 67 67 71 73 70 72 72 69 66 67 68 67 64 59 59 59 59 58 57 59 60 59 58 56 52 49 46 43 43 40 38 43 43 44 46 45 33 33 25
56 54 59 59 63 63 64 64 65 68 67 67 68 66 66 67 67 68 65 62 61 59 57 51 55 58 57 55 47 47 48 46 44 44 43 44 37 39 42 41 42 43 46 46 52
48 53 55 61 59 59 62 61 58 56 60 48 46 56 59 64 67 65 63 58 57 54 47 48 51 49 50 55 56 48 51 45 47 42 43 40 36 35 39 42 41 41 39 44 45
48 46 46 53 53 48 55 27 48 57 59 59 49 39 52 59 58 54 55 55 50 44 46 48 52 52 50 47 48 52 52 50 53 48 43 35 32 37 31 34 37 40 40 38 38
42 40 40 38 49 47 47 54 31 38 49 44 54 49 38 47 40 42 40 44 43 47 43 45 54 31 41 50 53 57 50 42 38 42 45 49 38 37 41 39 36 35 37 37 36
Wind_Direction
234 234 231 233 230 228 227 226 225 226 228 229 233 234 236 239 240 242 247 248 247 248 246 244 244 248 249 251 255 257 264 268 271 278 287 298 308 309 314 321 323 322 322 322 321
237 236 232 231 237 233 230 230 229 229 230 230 232 235 238 239 241 243 246 247 250 248 246 247 249 249 250 252 251 254 254 260 267 272 277 287 295 304 307 309 313 313 315 316 316
236 236 234 234 232 240 236 233 231 232 232 233 233 235 237 241 242 240 245 248 251 249 249 250 250 252 253 253 254 253 257 259 263 268 274 283 290 293 294 299 304 305 308 310 311
239 239 241 236 233 233 236 236 234 234 235 235 235 236 237 240 243 242 244 246 249 250 250 252 254 256 258 258 259 258 258 260 264 269 274 277 281 285 291 293 296 301 305 306 304
234 235 237 241 240 238 239 236 239 237 236 237 237 237 238 239 242 243 241 243 245 249 250 252 255 258 259 259 262 262 263 266 266 269 273 275 277 280 288 288 293 301 302 299 297
235 235 235 236 241 239 236 237 237 239 239 239 238 239 239 241 242 243 242 242 244 247 249 251 252 254 257 261 263 265 264 264 267 270 273 276 276 279 284 284 290 295 298 295 292
238 235 235 236 239 240 242 241 238 241 240 242 241 240 240 242 243 246 244 244 244 246 249 251 253 254 255 257 261 265 265 265 266 268 271 272 275 282 282 282 285 286 288 290 290
237 240 237 242 240 241 242 242 239 236 240 245 242 240 242 243 243 244 247 248 247 248 250 253 255 256 255 255 258 261 263 267 272 271 269 270 276 279 277 281 283 282 283 284 285
238 241 240 243 242 246 243 243 241 244 241 241 242 243 245 245 245 244 246 249 249 249 251 253 254 255 254 257 259 262 267 268 267 269 269 270 276 279 279 279 280 279 280 280 280
232 235 235 239 238 241 240 242 243 241 243 242 239 240 238 245 246 248 248 250 253 253 252 252 252 253 255 258 264 267 265 265 267 266 268 270 276 276 276 279 280 281 280 278 276
230 233 236 239 237 240 241 240 238 240 243 245 246 245 246 245 249 250 250 251 252 254 253 252 252 254 257 260 262 264 265 266 264 266 269 270 272 273 276 280 280 278 274 273 274
231 232 234 236 239 241 241 239 240 242 243 246 246 243 241 245 245 247 249 250 251 251 253 253 253 256 259 261 262 263 264 265 266 268 268 268 272 275 278 279 278 278 276 274 268
230 232 234 234 237 238 241 243 241 243 245 244 245 246 242 241 244 245 247 251 252 253 255 255 256 256 258 259 260 262 264 265 267 267 268 270 274 275 278 281 281 279 279 274 265
233 230 232 235 235 235 239 242 243 245 246 245 243 243 245 243 243 245 245 248 252 255 256 256 257 257 258 259 261 261 264 266 267 267 269 269 275 282 281 280 277 276 277 271 261
238 234 231 232 234 233 237 240 242 242 244 242 244 243 242 244 243 243 246 249 250 252 255 257 257 256 256 258 260 262 263 265 266 268 267 271 274 283 280 280 280 273 267 266 265
236 239 240 237 235 233 234 237 238 239 240 241 240 243 244 245 246 245 246 247 248 250 251 252 253 255 258 260 261 262 264 263 265 267 270 273 272 283 283 281 276 269 264 263 265
233 235 236 240 242 240 241 240 239 237 239 242 243 242 243 243 246 249 249 250 252 254 254 257 259 260 260 261 262 263 263 265 267 269 275 276 273 280 279 277 273 269 266 267 266
233 234 236 236 238 238 236 238 240 243 241 245 245 246 245 244 247 250 251 248 248 251 252 255 255 257 259 261 264 265 264 266 269 272 275 272 271 274 273 270 273 276 272 265 261
234 234 235 235 235 236 237 238 239 246 247 246 247 249 250 249 248 248 250 250 252 255 255 256 257 258 259 262 262 264 263 268 266 266 267 267 270 272 270 267 269 260 273 279 268
236 237 237 235 235 235 237 239 241 241 243 245 247 249 251 253 251 250 250 252 253 253 254 256 257 256 257 256 256 259 259 258 256 261 264 268 268 272 272 260 252 261 272 278 275
234 234 235 235 234 233 235 239 240 241 242 241 243 244 245 248 249 249 250 250 250 253 253 254 255 256 255 255 257 256 256 256 257 257 263 267 269 273 269 263 263 266 273 274 281
210 216 229 229 224 227 234 236 240 240 241 242 241 240 242 244 247 249 250 250 249 248 251 256 258 256 256 255 252 252 250 252 250 255 264 268 267 267 267 275 266 275 272 281 278
204 210 208 212 211 217 227 231 236 238 237 240 242 241 241 241 243 245 246 245 247 245 245 248 249 250 250 249 247 245 247 252 256 258 259 261 268 269 265 262 267 274 268 265 256
212 212 211 212 211 213 215 220 228 232 233 237 238 238 238 238 240 242 243 243 244 244 244 240 243 246 249 250 250 252 250 257 257 254 256 262 268 267 269 268 268 269 267 264 265
212 214 215 214 212 215 215 219 219 224 227 218 225 230 234 236 236 238 238 239 239 238 235 232 239 242 245 244 245 249 245 249 247 255 254 257 259 264 264 266 271 269 273 274 268
206 207 215 218 217 220 212 218 229 226 227 222 221 212 220 228 232 234 233 231 231 230 225 230 240 242 245 249 247 246 247 250 248 248 245 256 260 269 268 251 257 257 267 277 268
210 210 213 214 220 220 219 208 211 219 226 228 219 218 224 220 232 228 222 225 226 226 215 225 219 234 243 241 242 247 243 251 257 248 255 261 264 259 263 270 270 269 267 265 267